Location: Berg
(47.2344°N, 9.5296°E)
Time: 14:42:13
(UTC+00:00)

X-37B - Pass Details

Date: 30 September 2021
Orbit: 385 x 389 km, 45.0° (Epoch: 17 October)

Event Time Altitude Azimuth Distance (km) Brightness Sun altitude
Exits shadow 03:39:22 52° 204° (SSW) 489 0.8 -17.6°
Maximum altitude 03:39:34 53° 188° (S) 482 0.8 -17.6°
Drops below altitude 10° 03:42:41 10° 110° (ESE) 1,413 4.2 -17.1°
Sets 03:44:46 0° 105° (ESE) 2,267 5.5 -16.8°
